Time,TemperatureF,DewpointF,PressureIn,WindDirection,WindDirectionDegrees,WindSpeedMPH,WindSpeedGustMPH,Humidity,HourlyPrecipIn,Conditions,Clouds,dailyrainin,SolarRadiationWatts/m^2,SoftwareType,DateUTC
2013-03-19 00:03:00,51.0,43.0,-100.00,North,7,1.0,3.0,73,0.00,,,0.00,0.000000,,2013-03-19 04:03:00,
2013-03-19 00:13:00,51.0,43.0,-100.00,North,7,1.0,3.0,73,0.00,,,0.00,0.000000,,2013-03-19 04:13:00,
2013-03-19 00:23:00,51.0,43.0,-100.00,North,7,1.0,3.0,73,0.00,,,0.00,0.000000,,2013-03-19 04:23:00,
2013-03-19 00:53:00,52.0,44.0,-100.00,NE,45,1.0,4.0,73,0.00,,,0.00,0.000000,,2013-03-19 04:53:00,
2013-03-19 01:02:00,52.0,44.0,-100.00,NE,45,1.0,4.0,73,0.00,,,0.00,0.000000,,2013-03-19 05:02:00,
2013-03-19 01:12:00,52.0,44.0,-100.00,NE,45,1.0,4.0,73,0.00,,,0.00,0.000000,,2013-03-19 05:12:00,
2013-03-19 01:22:00,52.0,44.0,-100.00,NE,45,1.0,4.0,73,0.00,,,0.00,0.000000,,2013-03-19 05:22:00,
2013-03-19 01:52:00,52.0,44.0,-100.00,NE,49,2.0,3.0,73,0.00,,,0.00,0.000000,,2013-03-19 05:52:00,
2013-03-19 02:03:00,52.0,44.0,-100.00,NE,49,2.0,3.0,73,0.00,,,0.00,0.000000,,2013-03-19 06:03:00,
2013-03-19 02:12:00,52.0,44.0,-100.00,NE,49,2.0,3.0,73,0.00,,,0.00,0.000000,,2013-03-19 06:12:00,
2013-03-19 02:22:00,52.0,44.0,-100.00,NE,49,2.0,3.0,73,0.00,,,0.00,0.000000,,2013-03-19 06:22:00,
2013-03-19 02:53:00,53.0,45.0,-100.00,ESE,119,0.0,3.0,73,0.00,,,0.00,0.000000,,2013-03-19 06:53:00,
2013-03-19 03:03:00,53.0,45.0,-100.00,ESE,119,0.0,3.0,73,0.00,,,0.00,0.000000,,2013-03-19 07:03:00,
2013-03-19 03:12:00,53.0,45.0,-100.00,ESE,119,0.0,3.0,73,0.00,,,0.00,0.000000,,2013-03-19 07:12:00,
2013-03-19 03:22:00,53.0,45.0,-100.00,ESE,119,0.0,3.0,73,0.00,,,0.00,0.000000,,2013-03-19 07:22:00,
2013-03-19 03:53:00,53.0,45.0,-100.00,SSE,152,1.0,2.0,73,0.00,,,0.00,0.000000,,2013-03-19 07:53:00,
2013-03-19 04:03:00,53.0,45.0,-100.00,SSE,152,1.0,2.0,73,0.00,,,0.00,0.000000,,2013-03-19 08:03:00,
2013-03-19 04:13:00,53.0,45.0,-100.00,SSE,152,1.0,2.0,73,0.00,,,0.00,0.000000,,2013-03-19 08:13:00,
2013-03-19 04:22:00,53.0,45.0,-100.00,SSE,152,1.0,2.0,73,0.00,,,0.00,0.000000,,2013-03-19 08:22:00,
2013-03-19 04:53:00,55.0,47.0,-100.00,SSW,199,1.0,3.0,73,0.00,,,0.00,0.000000,,2013-03-19 08:53:00,
2013-03-19 05:03:00,55.0,47.0,-100.00,SSW,199,1.0,3.0,73,0.00,,,0.00,0.000000,,2013-03-19 09:03:00,
2013-03-19 05:12:00,55.0,47.0,-100.00,SSW,199,1.0,3.0,73,0.00,,,0.00,0.000000,,2013-03-19 09:12:00,
2013-03-19 05:23:00,55.0,47.0,-100.00,SSW,199,1.0,3.0,73,0.00,,,0.00,0.000000,,2013-03-19 09:23:00,
2013-03-19 05:53:00,59.0,50.0,-100.00,WSW,241,2.0,7.0,73,0.42,,,0.42,0.000000,,2013-03-19 09:53:00,
2013-03-19 06:04:00,59.0,50.0,-100.00,WSW,241,2.0,7.0,73,0.42,,,0.42,0.000000,,2013-03-19 10:04:00,
2013-03-19 06:13:00,59.0,50.0,-100.00,WSW,241,2.0,7.0,73,0.42,,,0.42,0.000000,,2013-03-19 10:13:00,
2013-03-19 06:23:00,59.0,50.0,-100.00,WSW,241,2.0,7.0,73,0.42,,,0.42,0.000000,,2013-03-19 10:23:00,
2013-03-19 06:53:00,56.0,47.0,-100.00,NNE,33,2.0,5.0,73,0.01,,,0.43,0.000000,,2013-03-19 10:53:00,
2013-03-19 07:03:00,56.0,47.0,-100.00,NNE,33,2.0,5.0,73,0.01,,,0.43,0.000000,,2013-03-19 11:03:00,
2013-03-19 07:12:00,56.0,47.0,-100.00,NNE,33,2.0,5.0,73,0.01,,,0.43,0.000000,,2013-03-19 11:12:00,
2013-03-19 07:22:00,56.0,47.0,-100.00,NNE,33,2.0,5.0,73,0.01,,,0.43,0.000000,,2013-03-19 11:22:00,
2013-03-19 07:53:00,58.0,49.0,-100.00,West,268,3.0,7.0,73,0.01,,,0.44,1.000000,,2013-03-19 11:53:00,
2013-03-19 08:02:00,58.0,49.0,-100.00,West,268,3.0,7.0,73,0.01,,,0.44,1.000000,,2013-03-19 12:02:00,
2013-03-19 08:12:00,58.0,49.0,-100.00,West,268,3.0,7.0,73,0.01,,,0.44,1.000000,,2013-03-19 12:12:00,
2013-03-19 08:23:00,58.0,49.0,-100.00,West,268,3.0,7.0,73,0.01,,,0.44,1.000000,,2013-03-19 12:23:00,
2013-03-19 08:52:00,60.0,51.0,-100.00,West,265,4.0,9.0,71,0.00,,,0.44,93.000000,,2013-03-19 12:52:00,
2013-03-19 09:02:00,60.0,51.0,-100.00,West,265,4.0,9.0,71,0.00,,,0.44,93.000000,,2013-03-19 13:02:00,
2013-03-19 09:12:00,60.0,51.0,-100.00,West,265,4.0,9.0,71,0.00,,,0.44,93.000000,,2013-03-19 13:12:00,
2013-03-19 09:23:00,60.0,51.0,-100.00,West,265,4.0,9.0,71,0.00,,,0.44,93.000000,,2013-03-19 13:23:00,
2013-03-19 09:53:00,57.0,47.0,-100.00,WNW,291,5.0,14.0,70,0.00,,,0.44,153.000000,,2013-03-19 13:53:00,
2013-03-19 10:02:00,57.0,47.0,-100.00,WNW,291,5.0,14.0,70,0.00,,,0.44,153.000000,,2013-03-19 14:02:00,
2013-03-19 10:12:00,57.0,47.0,-100.00,WNW,291,5.0,14.0,70,0.00,,,0.44,153.000000,,2013-03-19 14:12:00,
2013-03-19 10:22:00,57.0,47.0,-100.00,WNW,291,5.0,14.0,70,0.00,,,0.44,153.000000,,2013-03-19 14:22:00,
2013-03-19 10:53:00,58.0,47.0,-100.00,West,272,6.0,14.0,67,0.00,,,0.44,260.000000,,2013-03-19 14:53:00,
2013-03-19 11:03:00,58.0,47.0,-100.00,West,272,6.0,14.0,67,0.00,,,0.44,260.000000,,2013-03-19 15:03:00,
2013-03-19 11:12:00,58.0,47.0,-100.00,West,272,6.0,14.0,67,0.00,,,0.44,260.000000,,2013-03-19 15:12:00,
2013-03-19 11:22:00,58.0,47.0,-100.00,West,272,6.0,14.0,67,0.00,,,0.44,260.000000,,2013-03-19 15:22:00,
2013-03-19 11:54:00,60.0,47.0,-100.00,WNW,286,6.0,15.0,63,0.00,,,0.44,554.000000,,2013-03-19 15:54:00,
2013-03-19 12:04:00,60.0,47.0,-100.00,WNW,286,6.0,15.0,63,0.00,,,0.44,554.000000,,2013-03-19 16:04:00,
2013-03-19 12:13:00,60.0,47.0,-100.00,WNW,286,6.0,15.0,63,0.00,,,0.44,554.000000,,2013-03-19 16:13:00,
2013-03-19 12:24:00,60.0,47.0,-100.00,WNW,286,6.0,15.0,63,0.00,,,0.44,554.000000,,2013-03-19 16:24:00,
2013-03-19 12:55:00,61.0,47.0,-100.00,West,278,6.0,13.0,59,0.00,,,0.44,609.000000,,2013-03-19 16:55:00,
2013-03-19 13:03:00,61.0,47.0,-100.00,West,278,6.0,13.0,59,0.00,,,0.44,609.000000,,2013-03-19 17:03:00,
2013-03-19 13:14:00,61.0,47.0,-100.00,West,278,6.0,13.0,59,0.00,,,0.44,609.000000,,2013-03-19 17:14:00,
2013-03-19 13:24:00,61.0,47.0,-100.00,West,278,6.0,13.0,59,0.00,,,0.44,609.000000,,2013-03-19 17:24:00,
2013-03-19 13:53:00,65.0,49.0,-100.00,WNW,294,5.0,20.0,56,0.00,,,0.44,688.000000,,2013-03-19 17:53:00,
2013-03-19 14:03:00,65.0,49.0,-100.00,WNW,294,5.0,20.0,56,0.00,,,0.44,688.000000,,2013-03-19 18:03:00,
2013-03-19 14:14:00,65.0,49.0,-100.00,WNW,294,5.0,20.0,56,0.00,,,0.44,688.000000,,2013-03-19 18:14:00,
2013-03-19 14:23:00,65.0,49.0,-100.00,WNW,294,5.0,20.0,56,0.00,,,0.44,688.000000,,2013-03-19 18:23:00,
2013-03-19 14:54:00,64.0,47.0,-100.00,NW,309,5.0,15.0,55,0.00,,,0.44,702.000000,,2013-03-19 18:54:00,
2013-03-19 15:03:00,64.0,47.0,-100.00,NW,309,5.0,15.0,55,0.00,,,0.44,702.000000,,2013-03-19 19:03:00,
2013-03-19 15:12:00,64.0,47.0,-100.00,NW,309,5.0,15.0,55,0.00,,,0.44,702.000000,,2013-03-19 19:12:00,
2013-03-19 15:22:00,64.0,47.0,-100.00,NW,309,5.0,15.0,55,0.00,,,0.44,702.000000,,2013-03-19 19:22:00,
2013-03-19 15:53:00,65.0,47.0,-100.00,WNW,289,5.0,11.0,52,0.00,,,0.44,757.000000,,2013-03-19 19:53:00,
2013-03-19 16:03:00,65.0,47.0,-100.00,WNW,289,5.0,11.0,52,0.00,,,0.44,757.000000,,2013-03-19 20:03:00,
2013-03-19 16:12:00,65.0,47.0,-100.00,WNW,289,5.0,11.0,52,0.00,,,0.44,757.000000,,2013-03-19 20:12:00,
2013-03-19 16:23:00,65.0,47.0,-100.00,WNW,289,5.0,11.0,52,0.00,,,0.44,757.000000,,2013-03-19 20:23:00,
2013-03-19 16:53:00,63.0,47.0,-100.00,East,89,3.0,9.0,55,0.00,,,0.44,653.000000,,2013-03-19 20:53:00,
2013-03-19 17:02:00,63.0,47.0,-100.00,East,89,3.0,9.0,55,0.00,,,0.44,653.000000,,2013-03-19 21:02:00,
2013-03-19 17:12:00,63.0,47.0,-100.00,East,89,3.0,9.0,55,0.00,,,0.44,653.000000,,2013-03-19 21:12:00,
2013-03-19 17:23:00,63.0,47.0,-100.00,East,89,3.0,9.0,55,0.00,,,0.44,653.000000,,2013-03-19 21:23:00,
2013-03-19 17:53:00,62.0,47.0,-100.00,SE,126,4.0,7.0,59,0.00,,,0.44,445.000000,,2013-03-19 21:53:00,
2013-03-19 18:03:00,62.0,47.0,-100.00,SE,126,4.0,7.0,59,0.00,,,0.44,445.000000,,2013-03-19 22:03:00,
2013-03-19 18:13:00,62.0,47.0,-100.00,SE,126,4.0,7.0,59,0.00,,,0.44,445.000000,,2013-03-19 22:13:00,
2013-03-19 18:24:00,62.0,47.0,-100.00,SE,126,4.0,7.0,59,0.00,,,0.44,445.000000,,2013-03-19 22:24:00,
2013-03-19 18:54:00,59.0,47.0,-100.00,South,188,3.0,10.0,64,0.00,,,0.44,170.000000,,2013-03-19 22:54:00,
2013-03-19 19:03:00,59.0,47.0,-100.00,South,188,3.0,10.0,64,0.00,,,0.44,170.000000,,2013-03-19 23:03:00,
2013-03-19 19:12:00,59.0,47.0,-100.00,South,188,3.0,10.0,64,0.00,,,0.44,170.000000,,2013-03-19 23:12:00,
2013-03-19 19:22:00,59.0,47.0,-100.00,South,188,3.0,10.0,64,0.00,,,0.44,170.000000,,2013-03-19 23:22:00,
2013-03-19 19:53:00,56.0,46.0,-100.00,West,263,2.0,7.0,68,0.00,,,0.44,21.000000,,2013-03-19 23:53:00,
2013-03-19 20:03:00,56.0,46.0,-100.00,West,263,2.0,7.0,68,0.00,,,0.44,21.000000,,2013-03-20 00:03:00,
2013-03-19 20:13:00,56.0,46.0,-100.00,West,263,2.0,7.0,68,0.00,,,0.44,21.000000,,2013-03-20 00:13:00,
2013-03-19 20:22:00,56.0,46.0,-100.00,West,263,2.0,7.0,68,0.00,,,0.44,21.000000,,2013-03-20 00:22:00,
2013-03-19 20:53:00,53.0,43.0,-100.00,WSW,244,3.0,5.0,70,0.00,,,0.44,0.000000,,2013-03-20 00:53:00,
2013-03-19 21:03:00,53.0,43.0,-100.00,WSW,244,3.0,5.0,70,0.00,,,0.44,0.000000,,2013-03-20 01:03:00,
2013-03-19 21:12:00,53.0,43.0,-100.00,WSW,244,3.0,5.0,70,0.00,,,0.44,0.000000,,2013-03-20 01:12:00,
2013-03-19 21:23:00,53.0,43.0,-100.00,WSW,244,3.0,5.0,70,0.00,,,0.44,0.000000,,2013-03-20 01:23:00,
2013-03-19 21:53:00,53.0,43.0,-100.00,WSW,256,3.0,7.0,70,0.00,,,0.44,0.000000,,2013-03-20 01:53:00,
2013-03-19 22:03:00,53.0,43.0,-100.00,WSW,256,3.0,7.0,70,0.00,,,0.44,0.000000,,2013-03-20 02:03:00,
2013-03-19 22:12:00,53.0,43.0,-100.00,WSW,256,3.0,7.0,70,0.00,,,0.44,0.000000,,2013-03-20 02:12:00,
2013-03-19 22:22:00,53.0,43.0,-100.00,WSW,256,3.0,7.0,70,0.00,,,0.44,0.000000,,2013-03-20 02:22:00,
2013-03-19 22:53:00,51.0,42.0,-100.00,SW,233,3.0,6.0,71,0.00,,,0.44,0.000000,,2013-03-20 02:53:00,
2013-03-19 23:02:00,51.0,42.0,-100.00,SW,233,3.0,6.0,71,0.00,,,0.44,0.000000,,2013-03-20 03:02:00,
2013-03-19 23:12:00,51.0,42.0,-100.00,SW,233,3.0,6.0,71,0.00,,,0.44,0.000000,,2013-03-20 03:12:00,
2013-03-19 23:22:00,51.0,42.0,-100.00,SW,233,3.0,6.0,71,0.00,,,0.44,0.000000,,2013-03-20 03:22:00,
2013-03-19 23:53:00,49.0,40.0,-100.00,WSW,257,3.0,8.0,71,0.00,,,0.44,0.000000,,2013-03-20 03:53:00,